owner,sensor,date,latitude,longitude,vertical_datum,wind_speed,wind_to_direction,wind_speed_of_gust,qcFlag 
TABS,ioos:station:wmo:42043:1,2013-06-01T00:00:00Z,28.9818,-94.9186,4.0,6.273762826,168.6007521,7.78,'11111222,11111222,11111222' 
TABS,ioos:station:wmo:42043:1,2013-06-01T00:30:00Z,28.9818,-94.9186,4.0,6.207326317,164.1055672,7.56,'11111222,11111222,11111222' 
TABS,ioos:station:wmo:42043:1,2013-06-01T01:00:00Z,28.9818,-94.9186,4.0,5.753781365,159.2344255,7.18,'11111222,11111222,11111222' 
TABS,ioos:station:wmo:42043:1,2013-06-01T01:30:00Z,28.9818,-94.9186,4.0,6.162345333,157.1801398,7.54,'11111222,11111222,11111222' 
TABS,ioos:station:wmo:42043:1,2013-06-01T02:00:00Z,28.9818,-94.9186,4.0,6.593519546,161.9774965,8.47,'11111222,11111222,11111222' 
TABS,ioos:station:wmo:42043:1,2013-06-01T02:30:00Z,28.9818,-94.9186,4.0,6.754827903,165.5114045,8.65,'11111222,11111222,11111222' 
TABS,ioos:station:wmo:42043:1,2013-06-01T03:00:00Z,28.9818,-94.9186,4.0,6.928758908,162.0098535,8.69,'11111222,11111222,11111222' 
TABS,ioos:station:wmo:42043:1,2013-06-01T03:30:00Z,28.9818,-94.9186,4.0,7.370549505,168.0194973,9.12,'11111222,11111222,11111222' 
TABS,ioos:station:wmo:42043:1,2013-06-01T04:00:00Z,28.9818,-94.9186,4.0,7.549304604,167.1421504,9.42,'11111222,11111222,11111222' 
TABS,ioos:station:wmo:42043:1,2013-06-01T04:30:00Z,28.9818,-94.9186,4.0,7.299712323,169.1828932,8.95,'11111222,11111222,11111222' 
TABS,ioos:station:wmo:42043:1,2013-06-01T05:00:00Z,28.9818,-94.9186,4.0,6.790913046,172.9798602,8.86,'11111222,11111222,11111222' 
TABS,ioos:station:wmo:42043:1,2013-06-01T05:30:00Z,28.9818,-94.9186,4.0,7.404924037,177.9106206,9.1,'11111222,11111222,11111222' 
TABS,ioos:station:wmo:42043:1,2013-06-01T06:00:00Z,28.9818,-94.9186,4.0,7.002313903,178.5272185,9.18,'11111222,11111222,11111222' 
TABS,ioos:station:wmo:42043:1,2013-06-01T06:30:00Z,28.9818,-94.9186,4.0,7.751651437,178.8175006,10.13,'11111222,11111222,11111222' 
TABS,ioos:station:wmo:42043:1,2013-06-01T07:00:00Z,28.9818,-94.9186,4.0,7.419676543,175.8265747,10.4,'11111222,11111222,11111222' 
TABS,ioos:station:wmo:42043:1,2013-06-01T07:30:00Z,28.9818,-94.9186,4.0,7.214041863,174.4318816,9.38,'11111222,11111222,11111222' 
TABS,ioos:station:wmo:42043:1,2013-06-01T08:00:00Z,28.9818,-94.9186,4.0,7.178857848,175.8463671,9.24,'11111222,11111222,11111222' 
TABS,ioos:station:wmo:42043:1,2013-06-01T08:30:00Z,28.9818,-94.9186,4.0,7.592338243,174.7101416,10.63,'11111222,11111222,11111222' 
TABS,ioos:station:wmo:42043:1,2013-06-01T09:00:00Z,28.9818,-94.9186,4.0,6.683958408,178.0282352,8.31,'11111222,11111222,11111222' 
TABS,ioos:station:wmo:42043:1,2013-06-01T09:30:00Z,28.9818,-94.9186,4.0,6.174504029,173.1169146,8.38,'11111222,11111222,11111222' 
TABS,ioos:station:wmo:42043:1,2013-06-01T10:00:00Z,28.9818,-94.9186,4.0,6.979240646,169.8495859,9.06,'11111222,11111222,11111222' 
TABS,ioos:station:wmo:42043:1,2013-06-01T10:30:00Z,28.9818,-94.9186,4.0,7.527682246,167.8842177,9.39,'11111222,11111222,11111222' 
TABS,ioos:station:wmo:42043:1,2013-06-01T11:00:00Z,28.9818,-94.9186,4.0,7.491862252,173.2546466,9.33,'11111222,11111222,11111222' 
TABS,ioos:station:wmo:42043:1,2013-06-01T11:30:00Z,28.9818,-94.9186,4.0,7.765474873,176.3824626,10.22,'11111222,11111222,11111222' 
TABS,ioos:station:wmo:42043:1,2013-06-01T12:00:00Z,28.9818,-94.9186,4.0,7.560641507,174.8400984,9.38,'11111222,11111222,11111222' 
TABS,ioos:station:wmo:42043:1,2013-06-01T12:30:00Z,28.9818,-94.9186,4.0,7.819155965,172.9479209,9.82,'11111222,11111222,11111222' 
TABS,ioos:station:wmo:42043:1,2013-06-01T13:00:00Z,28.9818,-94.9186,4.0,7.442989991,174.6036812,9.54,'11111222,11111222,11111222' 
TABS,ioos:station:wmo:42043:1,2013-06-01T13:30:00Z,28.9818,-94.9186,4.0,7.194699438,177.9292258,8.86,'11111222,11111222,11111222' 
TABS,ioos:station:wmo:42043:1,2013-06-01T14:00:00Z,28.9818,-94.9186,4.0,7.115511225,177.7450072,9.32,'11111222,11111222,11111222' 
TABS,ioos:station:wmo:42043:1,2013-06-01T14:30:00Z,28.9818,-94.9186,4.0,6.952697318,176.5369746,9.09,'11111222,11111222,11111222' 
TABS,ioos:station:wmo:42043:1,2013-06-01T15:00:00Z,28.9818,-94.9186,4.0,6.646638248,175.9453116,8.43,'11111222,11111222,11111222' 
TABS,ioos:station:wmo:42043:1,2013-06-01T15:30:00Z,28.9818,-94.9186,4.0,5.764199858,182.1875226,8.21,'11111222,11111222,11111222' 
TABS,ioos:station:wmo:42043:1,2013-06-01T16:00:00Z,28.9818,-94.9186,4.0,5.621076409,181.1215123,7.29,'11111222,11111222,11111222' 
TABS,ioos:station:wmo:42043:1,2013-06-01T16:30:00Z,28.9818,-94.9186,4.0,5.435034499,189.5318337,7.4,'11111222,11111222,11111222' 
TABS,ioos:station:wmo:42043:1,2013-06-01T17:00:00Z,28.9818,-94.9186,4.0,5.560332724,185.9876282,7.1,'11111222,11111222,11111222' 
TABS,ioos:station:wmo:42043:1,2013-06-01T17:30:00Z,28.9818,-94.9186,4.0,5.202893426,188.1770149,6.89,'11111222,11111222,11111222' 
TABS,ioos:station:wmo:42043:1,2013-06-01T18:00:00Z,28.9818,-94.9186,4.0,4.81448855,195.9128754,6.44,'11111222,11111222,11111222' 
TABS,ioos:station:wmo:42043:1,2013-06-01T18:30:00Z,28.9818,-94.9186,4.0,4.130980513,181.2485863,5.49,'11111222,11111222,11111222' 
TABS,ioos:station:wmo:42043:1,2013-06-01T19:00:00Z,28.9818,-94.9186,4.0,3.93005089,180.2917888,5.73,'11111222,11111222,11111222' 
TABS,ioos:station:wmo:42043:1,2013-06-01T19:30:00Z,28.9818,-94.9186,4.0,3.990050125,170.9156265,5.08,'11111222,11111222,11111222' 
TABS,ioos:station:wmo:42043:1,2013-06-01T20:00:00Z,28.9818,-94.9186,4.0,4.183993308,170.7855521,5.82,'11111222,11111222,11111222' 
TABS,ioos:station:wmo:42043:1,2013-06-01T20:30:00Z,28.9818,-94.9186,4.0,3.491503974,167.5960263,4.71,'11111222,11111222,11111222' 
TABS,ioos:station:wmo:42043:1,2013-06-01T21:00:00Z,28.9818,-94.9186,4.0,4.590479278,159.8678603,5.96,'11111222,11111222,11111222' 
TABS,ioos:station:wmo:42043:1,2013-06-01T21:30:00Z,28.9818,-94.9186,4.0,4.384153282,148.0503137,5.7,'11111222,11111222,11111222' 
TABS,ioos:station:wmo:42043:1,2013-06-01T22:00:00Z,28.9818,-94.9186,4.0,4.910885867,156.9855099,6.27,'11111222,11111222,11111222' 
TABS,ioos:station:wmo:42043:1,2013-06-01T22:30:00Z,28.9818,-94.9186,4.0,4.86477132,160.2988973,6.09,'11111222,11111222,11111222' 
TABS,ioos:station:wmo:42043:1,2013-06-01T23:00:00Z,28.9818,-94.9186,4.0,5.21929114,160.1765914,6.91,'11111222,11111222,11111222' 
TABS,ioos:station:wmo:42043:1,2013-06-01T23:30:00Z,28.9818,-94.9186,4.0,5.396897257,164.0840174,6.67,'11111222,11111222,11111222' 
TABS,ioos:station:wmo:42043:1,2013-06-02T00:00:00Z,28.9818,-94.9186,4.0,0.910933587,342.7583705,2.46,'11111222,11111222,11111222' 
TABS,ioos:station:wmo:42043:1,2013-06-02T00:30:00Z,28.9818,-94.9186,4.0,1.062544117,341.9059253,2.75,'11111222,11111222,11111222' 
TABS,ioos:station:wmo:42043:1,2013-06-02T01:00:00Z,28.9818,-94.9186,4.0,1.103086579,337.6197068,2.6,'11111222,11111222,11111222' 
TABS,ioos:station:wmo:42043:1,2013-06-02T01:30:00Z,28.9818,-94.9186,4.0,1.349703671,329.2545122,2.6,'11111222,11111222,11111222' 
TABS,ioos:station:wmo:42043:1,2013-06-02T02:00:00Z,28.9818,-94.9186,4.0,0.861626369,338.198431,2.41,'11111222,11111222,11111222' 
TABS,ioos:station:wmo:42043:1,2013-06-02T02:30:00Z,28.9818,-94.9186,4.0,0.898943825,332.8647134,2.38,'11111222,11111222,11111222' 
TABS,ioos:station:wmo:42043:1,2013-06-02T03:00:00Z,28.9818,-94.9186,4.0,1.2175385,317.6628893,2.52,'11111222,11111222,11111222' 
TABS,ioos:station:wmo:42043:1,2013-06-02T03:30:00Z,28.9818,-94.9186,4.0,1.275617498,318.8139607,2.72,'11111222,11111222,11111222' 
TABS,ioos:station:wmo:42043:1,2013-06-02T04:00:00Z,28.9818,-94.9186,4.0,0.245153013,11.76805095,1.95,'11111222,11111222,11111222' 
TABS,ioos:station:wmo:42043:1,2013-06-02T04:30:00Z,28.9818,-94.9186,4.0,0.646606526,31.72331832,1.31,'11111222,11111222,11111222' 
TABS,ioos:station:wmo:42043:1,2013-06-02T05:00:00Z,28.9818,-94.9186,4.0,0.459673797,45.88108625,0.95,'11111222,11111222,11111222' 
TABS,ioos:station:wmo:42043:1,2013-06-02T05:30:00Z,28.9818,-94.9186,4.0,0.398246155,51.11517358,1.02,'11111222,11111222,11111222' 
TABS,ioos:station:wmo:42043:1,2013-06-02T06:00:00Z,28.9818,-94.9186,4.0,0.444072066,35.83735869,0.95,'11111222,11111222,11111222' 
TABS,ioos:station:wmo:42043:1,2013-06-02T06:30:00Z,28.9818,-94.9186,4.0,0.377359245,32.00509791,1.0,'11111222,11111222,11111222' 
TABS,ioos:station:wmo:42043:1,2013-06-02T07:00:00Z,28.9818,-94.9186,4.0,0.478016736,15.78050595,1.02,'11111222,11111222,11111222' 
TABS,ioos:station:wmo:42043:1,2013-06-02T07:30:00Z,28.9818,-94.9186,4.0,0.318904374,41.1856184,0.75,'11111222,11111222,11111222' 
TABS,ioos:station:wmo:42043:1,2013-06-02T08:00:00Z,28.9818,-94.9186,4.0,0.316227766,34.69486194,0.92,'11111222,11111222,11111222' 
TABS,ioos:station:wmo:42043:1,2013-06-02T08:30:00Z,28.9818,-94.9186,4.0,0.29,46.39686207,1.28,'11111222,11111222,11111222' 
TABS,ioos:station:wmo:42043:1,2013-06-02T09:00:00Z,28.9818,-94.9186,4.0,0.222036033,97.76556878,1.04,'11111222,11111222,11111222' 
TABS,ioos:station:wmo:42043:1,2013-06-02T09:30:00Z,28.9818,-94.9186,4.0,0.215870331,13.39225598,0.75,'11111222,11111222,11111222' 
TABS,ioos:station:wmo:42043:1,2013-06-02T10:00:00Z,28.9818,-94.9186,4.0,0.13,359.9997895,0.83,'11111222,11144222,11111222' 
TABS,ioos:station:wmo:42043:1,2013-06-02T10:30:00Z,28.9818,-94.9186,4.0,0.210950231,58.57008696,0.73,'11111222,11111222,11111222' 
TABS,ioos:station:wmo:42043:1,2013-06-02T11:00:00Z,28.9818,-94.9186,4.0,0.50009999,101.5350146,1.26,'11111222,11111222,11111222' 
TABS,ioos:station:wmo:42043:1,2013-06-02T11:30:00Z,28.9818,-94.9186,4.0,0.078102497,39.80526755,0.48,'11111222,11111222,11111222' 
TABS,ioos:station:wmo:42043:1,2013-06-02T12:00:00Z,28.9818,-94.9186,4.0,0.125299641,61.38918632,0.75,'11111222,11111222,11111222' 
TABS,ioos:station:wmo:42043:1,2013-06-02T12:30:00Z,28.9818,-94.9186,4.0,1.055509356,115.8371147,1.9,'11111222,11111222,11111222' 
TABS,ioos:station:wmo:42043:1,2013-06-02T13:00:00Z,28.9818,-94.9186,4.0,0.595399026,119.1484246,1.27,'11111222,11111222,11111222' 
TABS,ioos:station:wmo:42043:1,2013-06-02T13:30:00Z,28.9818,-94.9186,4.0,0.917877988,119.3581058,1.8,'11111222,11111222,11111222' 
TABS,ioos:station:wmo:42043:1,2013-06-02T14:00:00Z,28.9818,-94.9186,4.0,0.768505042,122.2428134,1.89,'11111222,11111222,11111222' 
TABS,ioos:station:wmo:42043:1,2013-06-02T14:30:00Z,28.9818,-94.9186,4.0,1.412232276,77.73483404,3.57,'11111222,11111222,11111222' 
TABS,ioos:station:wmo:42043:1,2013-06-02T15:00:00Z,28.9818,-94.9186,4.0,0.34176015,69.44358193,1.81,'11111222,11111222,11111222' 
TABS,ioos:station:wmo:42043:1,2013-06-02T15:30:00Z,28.9818,-94.9186,4.0,0.875728268,83.44264792,2.57,'11111222,11111222,11111222' 
TABS,ioos:station:wmo:42043:1,2013-06-02T16:00:00Z,28.9818,-94.9186,4.0,0.863712915,84.68504584,2.26,'11111222,11111222,11111222' 
TABS,ioos:station:wmo:42043:1,2013-06-02T16:30:00Z,28.9818,-94.9186,4.0,2.191255348,248.5870806,4.16,'11111222,11111222,11111222' 
TABS,ioos:station:wmo:42043:1,2013-06-02T17:00:00Z,28.9818,-94.9186,4.0,0.660302961,268.2642995,2.27,'11111222,11111222,11111222' 
TABS,ioos:station:wmo:42043:1,2013-06-02T17:30:00Z,28.9818,-94.9186,4.0,2.532370431,264.3344463,3.41,'11111222,11111222,11111222' 
TABS,ioos:station:wmo:42043:1,2013-06-02T18:00:00Z,28.9818,-94.9186,4.0,3.840052083,258.2804283,5.03,'11111222,11111222,11111222' 
TABS,ioos:station:wmo:42043:1,2013-06-02T18:30:00Z,28.9818,-94.9186,4.0,3.27184963,271.9266499,4.68,'11111222,11111222,11111222' 
TABS,ioos:station:wmo:42043:1,2013-06-02T19:00:00Z,28.9818,-94.9186,4.0,1.439618005,343.4530674,6.58,'11111222,11111222,11111222' 
TABS,ioos:station:wmo:42043:1,2013-06-02T19:30:00Z,28.9818,-94.9186,4.0,2.157243612,28.82215191,3.23,'11111222,11111222,11111222' 
TABS,ioos:station:wmo:42043:1,2013-06-02T20:00:00Z,28.9818,-94.9186,4.0,2.42243679,29.42189497,3.64,'11111222,11111222,11111222' 
TABS,ioos:station:wmo:42043:1,2013-06-02T20:30:00Z,28.9818,-94.9186,4.0,3.471397413,10.79178294,4.38,'11111222,11111222,11111222' 
TABS,ioos:station:wmo:42043:1,2013-06-02T21:00:00Z,28.9818,-94.9186,4.0,4.097145348,32.64251346,4.9,'11111222,11111222,11111222' 
TABS,ioos:station:wmo:42043:1,2013-06-02T21:30:00Z,28.9818,-94.9186,4.0,5.462966227,51.24158406,7.05,'11111222,11111222,11111222' 
TABS,ioos:station:wmo:42043:1,2013-06-02T22:00:00Z,28.9818,-94.9186,4.0,4.321504368,39.17716267,6.59,'11111222,11111222,11111222' 
TABS,ioos:station:wmo:42043:1,2013-06-02T22:30:00Z,28.9818,-94.9186,4.0,4.676034645,49.7705101,5.73,'11111222,11111222,11111222' 
TABS,ioos:station:wmo:42043:1,2013-06-02T23:00:00Z,28.9818,-94.9186,4.0,5.606300028,52.53700474,7.08,'11111222,11111222,11111222' 
TABS,ioos:station:wmo:42043:1,2013-06-02T23:30:00Z,28.9818,-94.9186,4.0,6.324080961,74.02933096,7.71,'11111222,11111222,11111222' 
TABS,ioos:station:wmo:42043:1,2013-06-03T00:00:00Z,28.9818,-94.9186,4.0,5.227245929,71.59933498,6.4,'11111222,11111222,11111222' 
TABS,ioos:station:wmo:42043:1,2013-06-03T00:30:00Z,28.9818,-94.9186,4.0,5.284325879,71.11893527,6.49,'11111222,11111222,11111222' 
TABS,ioos:station:wmo:42043:1,2013-06-03T01:00:00Z,28.9818,-94.9186,4.0,5.623459789,59.19315617,7.34,'11111222,11111222,11111222' 
TABS,ioos:station:wmo:42043:1,2013-06-03T01:30:00Z,28.9818,-94.9186,4.0,4.804050374,59.75179758,5.68,'11111222,11111222,11111222' 
TABS,ioos:station:wmo:42043:1,2013-06-03T02:00:00Z,28.9818,-94.9186,4.0,3.889087297,61.259851,4.81,'11111222,11111222,11111222' 
TABS,ioos:station:wmo:42043:1,2013-06-03T02:30:00Z,28.9818,-94.9186,4.0,3.686000543,53.1608559,4.42,'11111222,11111222,11111222' 
TABS,ioos:station:wmo:42043:1,2013-06-03T03:00:00Z,28.9818,-94.9186,4.0,2.896894889,72.31522841,3.63,'11111222,11111222,11111222' 
TABS,ioos:station:wmo:42043:1,2013-06-03T03:30:00Z,28.9818,-94.9186,4.0,2.510497959,88.8583825,3.15,'11111222,11111222,11111222' 
TABS,ioos:station:wmo:42043:1,2013-06-03T04:00:00Z,28.9818,-94.9186,4.0,3.445243097,43.23548912,6.31,'11111222,11111222,11111222' 
TABS,ioos:station:wmo:42043:1,2013-06-03T04:30:00Z,28.9818,-94.9186,4.0,2.40441261,78.97007365,5.05,'11111222,11111222,11111222' 
TABS,ioos:station:wmo:42043:1,2013-06-03T05:00:00Z,28.9818,-94.9186,4.0,5.351037283,58.44826792,6.68,'11111222,11111222,11111222' 
TABS,ioos:station:wmo:42043:1,2013-06-03T05:30:00Z,28.9818,-94.9186,4.0,5.474166603,54.74182924,6.82,'11111222,11111222,11111222' 
TABS,ioos:station:wmo:42043:1,2013-06-03T06:00:00Z,28.9818,-94.9186,4.0,5.217758139,55.30450668,6.25,'11111222,11111222,11111222' 
TABS,ioos:station:wmo:42043:1,2013-06-03T06:30:00Z,28.9818,-94.9186,4.0,4.255032315,58.55093735,5.24,'11111222,11111222,11111222' 
TABS,ioos:station:wmo:42043:1,2013-06-03T07:00:00Z,28.9818,-94.9186,4.0,3.932696276,54.20794093,4.56,'11111222,11111222,11111222' 
TABS,ioos:station:wmo:42043:1,2013-06-03T07:30:00Z,28.9818,-94.9186,4.0,3.928371164,37.65722062,4.7,'11111222,11111222,11111222' 
TABS,ioos:station:wmo:42043:1,2013-06-03T08:00:00Z,28.9818,-94.9186,4.0,3.730160854,30.62102101,4.78,'11111222,11111222,11111222' 
TABS,ioos:station:wmo:42043:1,2013-06-03T08:30:00Z,28.9818,-94.9186,4.0,4.277195343,24.88714305,5.43,'11111222,11111222,11111222' 
TABS,ioos:station:wmo:42043:1,2013-06-03T09:00:00Z,28.9818,-94.9186,4.0,4.534942116,29.16476908,5.46,'11111222,11111222,11111222' 
TABS,ioos:station:wmo:42043:1,2013-06-03T09:30:00Z,28.9818,-94.9186,4.0,4.208610222,31.19695096,5.56,'11111222,11111222,11111222' 
TABS,ioos:station:wmo:42043:1,2013-06-03T10:00:00Z,28.9818,-94.9186,4.0,4.651451386,30.20295667,6.54,'11111222,11111222,11111222' 
TABS,ioos:station:wmo:42043:1,2013-06-03T10:30:00Z,28.9818,-94.9186,4.0,5.058082641,26.91938903,6.76,'11111222,11111222,11111222' 
TABS,ioos:station:wmo:42043:1,2013-06-03T11:00:00Z,28.9818,-94.9186,4.0,4.623429463,33.62103729,5.63,'11111222,11111222,11111222' 
TABS,ioos:station:wmo:42043:1,2013-06-03T11:30:00Z,28.9818,-94.9186,4.0,4.848608048,22.17418987,6.03,'11111222,11111222,11111222' 
TABS,ioos:station:wmo:42043:1,2013-06-03T12:00:00Z,28.9818,-94.9186,4.0,5.359776115,24.9391282,6.55,'11111222,11111222,11111222' 
TABS,ioos:station:wmo:42043:1,2013-06-03T12:30:00Z,28.9818,-94.9186,4.0,5.665792089,24.39347188,6.96,'11111222,11111222,11111222' 
TABS,ioos:station:wmo:42043:1,2013-06-03T13:00:00Z,28.9818,-94.9186,4.0,5.599178511,26.29020093,6.95,'11111222,11111222,11111222' 
TABS,ioos:station:wmo:42043:1,2013-06-03T13:30:00Z,28.9818,-94.9186,4.0,5.597794208,28.48765117,6.87,'11111222,11111222,11111222' 
TABS,ioos:station:wmo:42043:1,2013-06-03T14:00:00Z,28.9818,-94.9186,4.0,5.666974501,25.61521396,7.03,'11111222,11111222,11111222' 
TABS,ioos:station:wmo:42043:1,2013-06-03T14:30:00Z,28.9818,-94.9186,4.0,5.50991833,32.24759438,7.33,'11111222,11111222,11111222' 
TABS,ioos:station:wmo:42043:1,2013-06-03T15:00:00Z,28.9818,-94.9186,4.0,5.765500846,39.79254367,6.78,'11111222,11111222,11111222' 
TABS,ioos:station:wmo:42043:1,2013-06-03T15:30:00Z,28.9818,-94.9186,4.0,5.584773944,38.67552966,6.95,'11111222,11111222,11111222' 
TABS,ioos:station:wmo:42043:1,2013-06-03T16:00:00Z,28.9818,-94.9186,4.0,5.710735504,33.35585893,7.2,'11111222,11111222,11111222' 
TABS,ioos:station:wmo:42043:1,2013-06-03T16:30:00Z,28.9818,-94.9186,4.0,5.117782723,29.36967148,6.18,'11111222,11111222,11111222' 
TABS,ioos:station:wmo:42043:1,2013-06-03T17:00:00Z,28.9818,-94.9186,4.0,4.341255579,29.99015255,5.29,'11111222,11111222,11111222' 
TABS,ioos:station:wmo:42043:1,2013-06-03T17:30:00Z,28.9818,-94.9186,4.0,3.8107742,30.60247978,4.78,'11111222,11111222,11111222' 
TABS,ioos:station:wmo:42043:1,2013-06-03T18:00:00Z,28.9818,-94.9186,4.0,4.365890516,41.09919969,5.4,'11111222,11111222,11111222' 
TABS,ioos:station:wmo:42043:1,2013-06-03T18:30:00Z,28.9818,-94.9186,4.0,4.413796552,46.46848159,5.42,'11111222,11111222,11111222' 
TABS,ioos:station:wmo:42043:1,2013-06-03T19:00:00Z,28.9818,-94.9186,4.0,4.123166259,43.91876265,5.19,'11111222,11111222,11111222' 
TABS,ioos:station:wmo:42043:1,2013-06-03T19:30:00Z,28.9818,-94.9186,4.0,3.896216113,49.89284511,4.97,'11111222,11111222,11111222' 
TABS,ioos:station:wmo:42043:1,2013-06-03T20:00:00Z,28.9818,-94.9186,4.0,4.067099704,60.21982032,5.48,'11111222,11111222,11111222' 
TABS,ioos:station:wmo:42043:1,2013-06-03T20:30:00Z,28.9818,-94.9186,4.0,3.716517187,63.98615562,4.88,'11111222,11111222,11111222' 
TABS,ioos:station:wmo:42043:1,2013-06-03T21:00:00Z,28.9818,-94.9186,4.0,3.706008635,75.62589799,4.63,'11111222,11111222,11111222' 
TABS,ioos:station:wmo:42043:1,2013-06-03T21:30:00Z,28.9818,-94.9186,4.0,3.591684841,91.7554487,4.49,'11111222,11111222,11111222' 
TABS,ioos:station:wmo:42043:1,2013-06-03T22:00:00Z,28.9818,-94.9186,4.0,3.338083282,100.7044026,4.38,'11111222,11111222,11111222' 
TABS,ioos:station:wmo:42043:1,2013-06-03T22:30:00Z,28.9818,-94.9186,4.0,2.722498852,111.0983212,3.5,'11111222,11111222,11111222' 
TABS,ioos:station:wmo:42043:1,2013-06-03T23:00:00Z,28.9818,-94.9186,4.0,2.652282036,115.695897,3.41,'11111222,11111222,11111222' 
TABS,ioos:station:wmo:42043:1,2013-06-03T23:30:00Z,28.9818,-94.9186,4.0,3.312355657,110.1312638,4.08,'11111222,11111222,11111222' 
TABS,ioos:station:wmo:42043:1,2013-06-04T00:00:00Z,28.9818,-94.9186,4.0,3.81367277,132.9814535,4.65,'11111222,11111222,11111222' 
TABS,ioos:station:wmo:42043:1,2013-06-04T00:30:00Z,28.9818,-94.9186,4.0,3.104400103,134.3477739,4.02,'11111222,11111222,11111222' 
TABS,ioos:station:wmo:42043:1,2013-06-04T01:00:00Z,28.9818,-94.9186,4.0,3.527973923,141.2136764,4.84,'11111222,11111222,11111222' 
TABS,ioos:station:wmo:42043:1,2013-06-04T01:30:00Z,28.9818,-94.9186,4.0,2.80585103,149.5968571,3.67,'11111222,11111222,11111222' 
TABS,ioos:station:wmo:42043:1,2013-06-04T02:00:00Z,28.9818,-94.9186,4.0,2.67944024,152.1919385,3.33,'11111222,11111222,11111222' 
TABS,ioos:station:wmo:42043:1,2013-06-04T02:30:00Z,28.9818,-94.9186,4.0,2.407758294,145.3201881,3.57,'11111222,11111222,11111222' 
TABS,ioos:station:wmo:42043:1,2013-06-04T03:00:00Z,28.9818,-94.9186,4.0,2.44705946,151.9691081,2.91,'11111222,11111222,11111222' 
TABS,ioos:station:wmo:42043:1,2013-06-04T03:30:00Z,28.9818,-94.9186,4.0,2.31905153,167.0426607,2.95,'11111222,11111222,11111222' 
TABS,ioos:station:wmo:42043:1,2013-06-04T04:00:00Z,28.9818,-94.9186,4.0,2.755721321,164.8545397,3.57,'11111222,11111222,11111222' 
TABS,ioos:station:wmo:42043:1,2013-06-04T04:30:00Z,28.9818,-94.9186,4.0,3.39425986,164.4490285,4.17,'11111222,11111222,11111222' 
TABS,ioos:station:wmo:42043:1,2013-06-04T05:00:00Z,28.9818,-94.9186,4.0,3.454634568,167.2915405,4.11,'11111222,11111222,11111222' 
TABS,ioos:station:wmo:42043:1,2013-06-04T05:30:00Z,28.9818,-94.9186,4.0,3.120592892,167.7900698,3.78,'11111222,11111222,11111222' 
TABS,ioos:station:wmo:42043:1,2013-06-04T06:00:00Z,28.9818,-94.9186,4.0,3.114514408,172.8067572,3.8,'11111222,11111222,11111222' 
TABS,ioos:station:wmo:42043:1,2013-06-04T06:30:00Z,28.9818,-94.9186,4.0,3.872841334,173.774396,4.78,'11111222,11111222,11111222' 
TABS,ioos:station:wmo:42043:1,2013-06-04T07:00:00Z,28.9818,-94.9186,4.0,3.608171282,172.8358188,4.46,'11111222,11111222,11111222' 
TABS,ioos:station:wmo:42043:1,2013-06-04T07:30:00Z,28.9818,-94.9186,4.0,2.681510768,178.0768258,3.71,'11111222,11111222,11111222' 
TABS,ioos:station:wmo:42043:1,2013-06-04T08:00:00Z,28.9818,-94.9186,4.0,2.380756182,178.5560883,3.04,'11111222,11111222,11111222' 
TABS,ioos:station:wmo:42043:1,2013-06-04T08:30:00Z,28.9818,-94.9186,4.0,2.430226327,166.1927237,3.36,'11111222,11111222,11111222' 
TABS,ioos:station:wmo:42043:1,2013-06-04T09:00:00Z,28.9818,-94.9186,4.0,2.142451866,144.3071749,2.9,'11111222,11111222,11111222' 
TABS,ioos:station:wmo:42043:1,2013-06-04T09:30:00Z,28.9818,-94.9186,4.0,2.340534127,135.1734138,3.73,'11111222,11111222,11111222' 
TABS,ioos:station:wmo:42043:1,2013-06-04T10:00:00Z,28.9818,-94.9186,4.0,2.113669794,124.5926287,3.08,'11111222,11111222,11111222' 
TABS,ioos:station:wmo:42043:1,2013-06-04T10:30:00Z,28.9818,-94.9186,4.0,2.13213508,106.9055395,2.96,'11111222,11111222,11111222' 
TABS,ioos:station:wmo:42043:1,2013-06-04T11:00:00Z,28.9818,-94.9186,4.0,2.837904156,114.1268481,3.76,'11111222,11111222,11111222' 
TABS,ioos:station:wmo:42043:1,2013-06-04T11:30:00Z,28.9818,-94.9186,4.0,2.425943116,105.2969325,3.19,'11111222,11111222,11111222' 
TABS,ioos:station:wmo:42043:1,2013-06-04T12:00:00Z,28.9818,-94.9186,4.0,2.100023809,89.72674474,2.74,'11111222,11111222,11111222' 
TABS,ioos:station:wmo:42043:1,2013-06-04T12:30:00Z,28.9818,-94.9186,4.0,1.86034943,104.6342177,2.54,'11111222,11111222,11111222' 
TABS,ioos:station:wmo:42043:1,2013-06-04T13:00:00Z,28.9818,-94.9186,4.0,2.300086955,118.5710527,2.92,'11111222,11111222,11111222' 
TABS,ioos:station:wmo:42043:1,2013-06-04T13:30:00Z,28.9818,-94.9186,4.0,2.750727177,115.6338556,3.6,'11111222,11111222,11111222' 
TABS,ioos:station:wmo:42043:1,2013-06-04T14:00:00Z,28.9818,-94.9186,4.0,2.620877716,119.9892732,3.52,'11111222,11111222,11111222' 
TABS,ioos:station:wmo:42043:1,2013-06-04T14:30:00Z,28.9818,-94.9186,4.0,2.183323155,100.0235791,2.99,'11111222,11111222,11111222' 
TABS,ioos:station:wmo:42043:1,2013-06-04T15:00:00Z,28.9818,-94.9186,4.0,2.28560714,85.98541277,3.04,'11111222,11111222,11111222' 
TABS,ioos:station:wmo:42043:1,2013-06-04T15:30:00Z,28.9818,-94.9186,4.0,2.427447219,85.51036964,3.57,'11111222,11111222,11111222' 
TABS,ioos:station:wmo:42043:1,2013-06-04T16:00:00Z,28.9818,-94.9186,4.0,2.332059176,82.11271412,3.42,'11111222,11111222,11111222' 
TABS,ioos:station:wmo:42043:1,2013-06-04T16:30:00Z,28.9818,-94.9186,4.0,2.606395979,81.83840749,3.55,'11111222,11111222,11111222' 
TABS,ioos:station:wmo:42043:1,2013-06-04T17:00:00Z,28.9818,-94.9186,4.0,3.152982715,83.07743488,4.22,'11111222,11111222,11111222' 
TABS,ioos:station:wmo:42043:1,2013-06-04T17:30:00Z,28.9818,-94.9186,4.0,3.610124652,89.52344894,4.44,'11111222,11111222,11111222' 
TABS,ioos:station:wmo:42043:1,2013-06-04T18:00:00Z,28.9818,-94.9186,4.0,4.158004329,98.71513341,5.23,'11111222,11111222,11111222' 
TABS,ioos:station:wmo:42043:1,2013-06-04T18:30:00Z,28.9818,-94.9186,4.0,4.589400832,101.946919,5.58,'11111222,11111222,11111222' 